Location: Champs
(48.8539°N, 2.6040°E)
Time: 17:52:31
(UTC+00:00)

DMSP 5D-2 F13 DEB - Pass Details

Date: 11 August 2022
Orbit: 710 x 775 km, 98.8° (Epoch: 23 September)

Event Time Altitude Azimuth Distance (km) Brightness Sun altitude
Exits shadow 22:11:09 29° 93° (E) 1,383 ? -22.1°
Maximum altitude 22:12:27 34° 63° (ENE) 1,270 ? -22.2°
Drops below altitude 10° 22:17:02 10° 1° (N) 2,340 ? -22.5°
Sets 22:19:33 0° 352° (N) 3,276 ? -22.7°
